Weather History for Whidbey Island, WA

Change the Weather History Date:

Thursday, November 22, 2012

  Actual Average Record
Temperature  
Mean Temperature 44 °F -  
Max Temperature 48 °F 47 °F 53 °F (2014)
Min Temperature 39 °F 38 °F 21 °F (2010)
Degree Days  
Heating Degree Days 22    
Moisture  
Dew Point 36 °F    
Average Humidity 71    
Maximum Humidity 89    
Minimum Humidity 61    
Precipitation  
Precipitation 0.06 in - - ()
Sea Level Pressure  
Sea Level Pressure 30.28 in    
Wind  
Wind Speed 11 mph (ESE)    
Max Wind Speed 25 mph    
Max Gust Speed 34 mph    
Visibility 10 miles    
Events Rain    
Averages and records for this station are not official NWS values.
T = Trace of Precipitation, MM = Missing Value Source: NWS Daily Summary

Daily Weather History Graph

Daily Weather History Graph

Search for Another Location

Airport:

Trip Planner

Search our weather history database for the weather conditions in past years. The results will help you decide how hot, cold, wet, or windy it might be!

Date:

Astronomy

Nov. 22, 2012 Rise Set
Actual Time 7:29 AM PST 4:24 PM PST
Civil Twilight 6:54 AM PST 4:59 PM PST
Nautical Twilight 6:15 AM PST 5:37 PM PST
Astronomical Twilight 5:38 AM PST 6:14 PM PST
Moon 1:33 PM PST (11/22) 1:31 AM PST (11/22)
Length of Visible Light 10h 04m
Length of Day
8h 54m
Waxing Gibbous, 72% of the Moon is Illuminated
Nov 22
Waxing Gibbous
Nov 28
Full
Dec 6
Last Quarter
Dec 13
New
Dec 19
First Quarter

Hourly Weather History & Observations

Time (PST) Temp. Windchill Dew Point Humidity Pressure Visibility Wind Dir Wind Speed Gust Speed Precip Events Conditions
12:56 AM 39.9 °F 34.5 °F 37.0 °F 89% 30.31 in 10.0 mi ESE 8.1 mph - N/A   Clear
2:56 AM 39.0 °F 34.0 °F 36.0 °F 89% 30.33 in 10.0 mi East 6.9 mph - N/A   Clear
3:56 AM 41.0 °F 35.8 °F 37.0 °F 86% 30.35 in 10.0 mi East 8.1 mph - N/A   Clear
5:56 AM 39.9 °F 33.9 °F 37.0 °F 89% 30.36 in 10.0 mi East 9.2 mph - N/A   Scattered Clouds
8:56 AM 43.0 °F 36.4 °F 37.0 °F 80% 30.36 in 10.0 mi ESE 12.7 mph 23.0 mph N/A   Scattered Clouds
9:56 AM 45.0 °F 39.3 °F 37.0 °F 74% 30.35 in 10.0 mi ESE 11.5 mph - N/A   Overcast
10:56 AM 45.0 °F 38.9 °F 36.0 °F 71% 30.35 in 10.0 mi SE 12.7 mph - N/A   Overcast
11:56 AM 46.0 °F 40.6 °F 36.0 °F 68% 30.34 in 10.0 mi ESE 11.5 mph - N/A   Overcast
12:56 PM 46.0 °F 40.6 °F 35.1 °F 66% 30.32 in 10.0 mi ESE 11.5 mph - N/A   Overcast
1:56 PM 46.0 °F 40.6 °F 35.1 °F 66% 30.31 in 10.0 mi ESE 11.5 mph - N/A   Overcast
2:56 PM 46.0 °F 43.9 °F 34.0 °F 63% 30.30 in 10.0 mi ESE 4.6 mph - N/A   Overcast
3:56 PM 46.0 °F 42.5 °F 35.1 °F 66% 30.29 in 10.0 mi ESE 6.9 mph - N/A   Overcast
4:56 PM 46.0 °F 41.4 °F 35.1 °F 66% 30.27 in 10.0 mi SE 9.2 mph - N/A   Overcast
5:56 PM 46.9 °F - 34.0 °F 61% 30.23 in 10.0 mi ESE 13.8 mph - N/A   Overcast
6:56 PM 46.9 °F - 34.0 °F 61% 30.21 in 10.0 mi ESE 17.3 mph - 0.00 in   Overcast
7:56 PM 46.9 °F - 35.1 °F 63% 30.19 in 10.0 mi ESE 16.1 mph - N/A   Overcast
8:56 PM 48.0 °F - 35.1 °F 61% 30.17 in 10.0 mi SE 17.3 mph 29.9 mph N/A   Overcast
9:56 PM 48.0 °F - 36.0 °F 63% 30.17 in 10.0 mi SE 17.3 mph 25.3 mph N/A   Overcast
10:56 PM 46.0 °F 37.6 °F 37.0 °F 71% 30.16 in 9.0 mi SE 24.2 mph 34.5 mph 0.02 in Rain Light Rain
11:56 PM 45.0 °F 36.0 °F 37.9 °F 76% 30.13 in 8.0 mi SE 25.3 mph 33.4 mph 0.04 in Rain Light Rain